Location: Lafig�re
(44.4503°N, 4.0357°E)
Time: 14:28:01
(UTC+00:00)

ARGOS - Pass Details

Date: 31 January 2021
Orbit: 821 x 834 km, 98.4° (Epoch: 05 March)

Event Time Altitude Azimuth Distance (km) Brightness Sun altitude
Rises 17:26:06 0° 124° (SE) 3,350 5.9 -6.5°
Reaches altitude 10° 17:28:56 10° 109° (ESE) 2,424 5.1 -7.0°
Maximum altitude 17:32:54 22° 61° (ENE) 1,752 4.3 -7.7°
Drops below altitude 10° 17:36:54 10° 13° (NNE) 2,441 5.3 -8.4°
Sets 17:39:45 0° 359° (N) 3,382 6.2 -8.9°
